{"data":{"norad_id":58600,"intl_designator":"2023-200M","name":"STARLINK-31052","alt_names":[],"object_type":"PAYLOAD","status":"ACTIVE","operator":null,"country":"US","launch_date":"2023-12-19","launch_site_code":"AFETR","launch_vehicle":null,"mission":null,"orbit_class":"UNKNOWN","rcs_meters":null,"size_class":null,"mass_kg":null,"dimensions":null,"purposes":["comms"],"wikipedia_slug":null,"has_3d_model":false,"image_url":null,"decayed_at":null,"tle_current":{"epoch":"2026-09-19T10:15:12.962304Z","epoch_age_seconds":242492,"freshness":"STALE","line1":"1 58600U 23200M   26262.42723336 -.00000052  00000+0  76512-5 0  9997","line2":"2 58600  43.0058 154.4581 0001710 256.2095 103.8566 15.27575458153240","mean_motion":15.27575458,"eccentricity":0.000171,"inclination_deg":43.0058,"raan_deg":154.4581,"arg_perigee_deg":256.2095,"mean_anomaly_deg":103.8566,"bstar":7.6512e-6,"rev_number":15324,"period_min":94.267029000671,"perigee_km":481.88943130723,"apogee_km":484.23596160342,"semimajor_km":6861.1996964553,"source":"CELESTRAK","updated_at":"2026-09-21T09:00:33.918950Z"}}}